| time (UTC) | temp F | wind direction | speed MPH | gust MPH | rain 1hr in | rain 24hr in | rain mn in | humidity % | barometer mb |
| 20260506101756 | 56 | 212 | 12.0 | 29.0 | 0.00 | 0.00 | 0.00 | 92 | 999.9 |
| 20260506100856 | 56 | 213 | 12.0 | 25.0 | 0.00 | 0.00 | 0.00 | 92 | 999.9 |
| 20260506095956 | 56 | 210 | 12.0 | 24.0 | 0.00 | 0.00 | 0.00 | 92 | 999.8 |
| 20260506095055 | 56 | 209 | 12.0 | 23.0 | 0.00 | 0.00 | 0.00 | 92 | 999.7 |
| 20260506094155 | 56 | 216 | 12.0 | 23.0 | 0.00 | 0.00 | 0.00 | 92 | 999.7 |
| 20260506093256 | 56 | 212 | 13.0 | 28.0 | 0.00 | 0.00 | 0.00 | 92 | 999.7 |
| 20260506092355 | 56 | 213 | 13.0 | 27.0 | 0.00 | 0.00 | 0.00 | 92 | 999.6 |
| 20260506091455 | 56 | 210 | 11.0 | 23.0 | 0.00 | 0.00 | 0.00 | 92 | 999.8 |
| 20260506090555 | 56 | 214 | 13.0 | 30.0 | 0.00 | 0.00 | 0.00 | 91 | 999.8 |
| 20260506085655 | 56 | 217 | 12.0 | 27.0 | 0.00 | 0.00 | 0.00 | 91 | 999.9 |
| 20260506083855 | 56 | 212 | 12.0 | 27.0 | 0.00 | 0.00 | 0.00 | 91 | 1000.1 |
| 20260506082955 | 56 | 205 | 12.0 | 30.0 | 0.00 | 0.00 | 0.00 | 90 | 1000.1 |
| 20260506082055 | 56 | 201 | 13.0 | 28.0 | 0.00 | 0.00 | 0.00 | 90 | 1000.1 |
| 20260506081155 | 56 | 213 | 14.0 | 28.0 | 0.00 | 0.00 | 0.00 | 90 | 1000.0 |
| 20260506080255 | 56 | 219 | 13.0 | 28.0 | 0.00 | 0.00 | 0.00 | 90 | 1000.1 |
| 20260506072655 | 57 | 213 | 13.0 | 27.0 | 0.00 | 0.00 | 0.00 | 89 | 1000.3 |
| 20260506071755 | 57 | 215 | 15.0 | 29.0 | 0.00 | 0.00 | 0.00 | 88 | 1000.2 |
| 20260506070855 | 57 | 215 | 15.0 | 30.0 | 0.00 | 0.00 | 0.00 | 88 | 1000.3 |
| 20260506062355 | 58 | 216 | 15.0 | 32.0 | 0.00 | 0.00 | 0.00 | 86 | 1000.2 |
| 20260506061455 | 58 | 219 | 18.0 | 32.0 | 0.00 | 0.00 | 0.00 | 86 | 1000.2 |
| 20260506051154 | 58 | 219 | 17.0 | 31.0 | 0.00 | 0.00 | 0.00 | 84 | 1000.6 |
| 20260506050255 | 59 | 222 | 18.0 | 36.0 | 0.00 | 0.00 | 0.00 | 84 | 1000.6 |
| 20260506044455 | 59 | 220 | 21.0 | 38.0 | 0.00 | 0.00 | 0.00 | 83 | 1000.4 |
| 20260506043554 | 60 | 219 | 22.0 | 36.0 | 0.00 | 0.00 | 0.00 | 82 | 1000.4 |
| 20260506042654 | 59 | 221 | 21.0 | 33.0 | 0.00 | 0.00 | 0.00 | 82 | 1000.5 |
| 20260506041755 | 59 | 218 | 18.0 | 33.0 | 0.00 | 0.00 | 0.00 | 82 | 1000.5 |
| 20260506040854 | 59 | 220 | 18.0 | 42.0 | 0.00 | 0.00 | 0.00 | 82 | 1000.6 |
| 20260506035054 | 59 | 221 | 18.0 | 37.0 | 0.00 | 0.00 | 0.00 | 82 | 1000.4 |
| 20260506034154 | 59 | 220 | 18.0 | 37.0 | 0.00 | 0.00 | 0.00 | 81 | 1000.5 |
| 20260506033254 | 59 | 215 | 18.0 | 44.0 | 0.00 | 0.00 | 0.00 | 82 | 1000.5 |
| 20260506032354 | 59 | 211 | 19.0 | 39.0 | 0.00 | 0.00 | 0.00 | 81 | 1000.5 |
| 20260506031454 | 60 | 222 | 20.0 | 46.0 | 0.00 | 0.00 | 0.00 | 81 | 1000.3 |
| 20260506025654 | 60 | 220 | 18.0 | 39.0 | 0.00 | 0.00 | 0.00 | 81 | 1000.7 |
| 20260506024754 | 60 | 214 | 18.0 | 37.0 | 0.00 | 0.00 | 0.00 | 81 | 1000.5 |
| 20260506022954 | 60 | 216 | 19.0 | 35.0 | 0.00 | 0.00 | 0.00 | 80 | 1000.5 |
| 20260506022054 | 60 | 217 | 19.0 | 40.0 | 0.00 | 0.00 | 0.00 | 80 | 1000.4 |
| 20260506021154 | 60 | 216 | 19.0 | 36.0 | 0.00 | 0.00 | 0.00 | 79 | 1000.7 |
| 20260506020254 | 60 | 218 | 19.0 | 39.0 | 0.00 | 0.00 | 0.00 | 78 | 1000.6 |
| 20260506015354 | 61 | 219 | 18.0 | 42.0 | 0.00 | 0.00 | 0.00 | 77 | 1000.4 |
| 20260506014454 | 62 | 222 | 20.0 | 38.0 | 0.00 | 0.00 | 0.00 | 75 | 1000.5 |
| 20260506013554 | 62 | 223 | 22.0 | 43.0 | 0.00 | 0.00 | 0.00 | 73 | 1000.2 |
| 20260506012654 | 63 | 221 | 22.0 | 46.0 | 0.00 | 0.00 | 0.00 | 72 | 1000.0 |
| 20260506010854 | 63 | 222 | 21.0 | 42.0 | 0.00 | 0.00 | 0.00 | 71 | 999.9 |
| 20260506005054 | 62 | 217 | 21.0 | 39.0 | 0.00 | 0.00 | 0.00 | 73 | 999.7 |
| 20260506004154 | 62 | 217 | 20.0 | 39.0 | 0.00 | 0.00 | 0.00 | 74 | 999.4 |
| 20260506002354 | 62 | 211 | 18.0 | 37.0 | 0.00 | 0.00 | 0.00 | 74 | 999.4 |
| 20260506001454 | 62 | 220 | 21.0 | 43.0 | 0.00 | 0.00 | 0.00 | 73 | 999.6 |
| 20260506000553 | 62 | 226 | 20.0 | 43.0 | 0.00 | 0.00 | 0.00 | 73 | 999.2 |
| 20260505235653 | 62 | 220 | 23.0 | 42.0 | 0.00 | 0.00 | 0.00 | 73 | 999.1 |
| 20260505233853 | 62 | 220 | 16.0 | 36.0 | 0.00 | 0.00 | 0.00 | 73 | 998.9 |
| 20260505232954 | 62 | 214 | 17.0 | 35.0 | 0.00 | 0.00 | 0.00 | 73 | 998.9 |
| 20260505232053 | 62 | 213 | 16.0 | 31.0 | 0.00 | 0.00 | 0.00 | 72 | 998.7 |
| 20260505231153 | 62 | 219 | 16.0 | 33.0 | 0.00 | 0.00 | 0.00 | 72 | 998.7 |
| 20260505230253 | 63 | 218 | 17.0 | 35.0 | 0.00 | 0.00 | 0.00 | 71 | 998.6 |
| 20260505222653 | 64 | 213 | 16.0 | 35.0 | 0.00 | 0.00 | 0.00 | 69 | 998.4 |
| 20260505221753 | 64 | 220 | 17.0 | 31.0 | 0.00 | 0.00 | 0.00 | 69 | 998.3 |
| 20260505220853 | 64 | 217 | 16.0 | 35.0 | 0.00 | 0.00 | 0.00 | 68 | 998.3 |
| 20260505215953 | 65 | 218 | 17.0 | 38.0 | 0.00 | 0.00 | 0.00 | 67 | 998.3 |
| 20260505215053 | 65 | 212 | 16.0 | 30.0 | 0.00 | 0.00 | 0.00 | 67 | 998.0 |
| 20260505214153 | 65 | 218 | 17.0 | 35.0 | 0.00 | 0.00 | 0.00 | 67 | 998.0 |
| 20260505213253 | 65 | 212 | 14.0 | 31.0 | 0.00 | 0.00 | 0.00 | 67 | 997.9 |
| 20260505212353 | 65 | 211 | 13.0 | 27.0 | 0.00 | 0.00 | 0.00 | 68 | 998.1 |
| 20260505211453 | 65 | 210 | 15.0 | 33.0 | 0.00 | 0.00 | 0.00 | 67 | 998.0 |
| 20260505205653 | 66 | 207 | 12.0 | 28.0 | 0.00 | 0.00 | 0.00 | 67 | 998.0 |
| 20260505203853 | 65 | 198 | 11.0 | 24.0 | 0.00 | 0.00 | 0.00 | 69 | 997.9 |
| 20260505202952 | 65 | 196 | 11.0 | 21.0 | 0.00 | 0.00 | 0.00 | 69 | 998.0 |
| 20260505202053 | 65 | 190 | 11.0 | 24.0 | 0.00 | 0.00 | 0.00 | 69 | 998.2 |
| 20260505200252 | 66 | 194 | 11.0 | 20.0 | 0.00 | 0.00 | 0.00 | 68 | 998.4 |
| 20260505195352 | 65 | 196 | 12.0 | 26.0 | 0.00 | 0.00 | 0.00 | 68 | 998.4 |
| 20260505194452 | 65 | 189 | 12.0 | 23.0 | 0.00 | 0.00 | 0.00 | 68 | 998.3 |
| 20260505193552 | 65 | 200 | 13.0 | 30.0 | 0.00 | 0.00 | 0.00 | 68 | 998.5 |
| 20260505192652 | 65 | 186 | 11.0 | 22.0 | 0.00 | 0.00 | 0.00 | 68 | 998.7 |
| 20260505191752 | 65 | 198 | 12.0 | 25.0 | 0.00 | 0.00 | 0.00 | 69 | 998.8 |
| 20260505190852 | 65 | 200 | 12.0 | 26.0 | 0.00 | 0.00 | 0.00 | 68 | 999.2 |
| 20260505185952 | 66 | 192 | 11.0 | 22.0 | 0.00 | 0.00 | 0.00 | 67 | 999.2 |
| 20260505185052 | 66 | 177 | 11.0 | 22.0 | 0.00 | 0.00 | 0.00 | 68 | 999.3 |
| 20260505184153 | 66 | 218 | 11.0 | 22.0 | 0.00 | 0.00 | 0.00 | 67 | 999.2 |
| 20260505183252 | 66 | 189 | 11.0 | 21.0 | 0.00 | 0.00 | 0.00 | 67 | 999.3 |
| 20260505182352 | 66 | 163 | 11.0 | 20.0 | 0.00 | 0.00 | 0.00 | 69 | 999.4 |
| 20260505181452 | 66 | 175 | 9.0 | 19.0 | 0.00 | 0.00 | 0.00 | 68 | 999.6 |
| 20260505175652 | 66 | 165 | 8.0 | 20.0 | 0.00 | 0.00 | 0.00 | 69 | 999.8 |
| 20260505174752 | 67 | 158 | 8.0 | 18.0 | 0.00 | 0.00 | 0.00 | 68 | 999.7 |
| 20260505173852 | 66 | 167 | 9.0 | 19.0 | 0.00 | 0.00 | 0.00 | 68 | 999.7 |
| 20260505172952 | 67 | 198 | 8.0 | 18.0 | 0.00 | 0.00 | 0.00 | 68 | 999.7 |
| 20260505172052 | 66 | 184 | 9.0 | 20.0 | 0.00 | 0.00 | 0.00 | 68 | 999.8 |
| 20260505170252 | 67 | 176 | 9.0 | 20.0 | 0.00 | 0.00 | 0.00 | 67 | 999.7 |
| 20260505165352 | 66 | 194 | 9.0 | 19.0 | 0.00 | 0.00 | 0.00 | 67 | 999.9 |
| 20260505164452 | 67 | 183 | 8.0 | 18.0 | 0.00 | 0.00 | 0.00 | 66 | 999.9 |
| 20260505163552 | 68 | 187 | 8.0 | 17.0 | 0.00 | 0.00 | 0.00 | 66 | 1000.2 |
| 20260505162652 | 68 | 172 | 8.0 | 19.0 | 0.00 | 0.00 | 0.00 | 65 | 1000.2 |
| 20260505161752 | 69 | 202 | 7.0 | 17.0 | 0.00 | 0.00 | 0.00 | 65 | 1000.3 |
| 20260505160852 | 68 | 207 | 8.0 | 20.0 | 0.00 | 0.00 | 0.00 | 65 | 1000.4 |
| 20260505153252 | 66 | 187 | 7.0 | 18.0 | 0.00 | 0.00 | 0.00 | 69 | 1000.6 |
| 20260505150551 | 65 | 215 | 10.0 | 23.0 | 0.00 | 0.00 | 0.00 | 70 | 1001.2 |
| 20260505140251 | 63 | 219 | 8.0 | 18.0 | 0.00 | 0.00 | 0.00 | 74 | 1000.8 |
| 20260505124151 | 60 | 181 | 5.0 | 11.0 | 0.00 | 0.00 | 0.00 | 79 | 1000.8 |
| 20260505123251 | 60 | 199 | 6.0 | 11.0 | 0.00 | 0.00 | 0.00 | 80 | 1001.0 |
| 20260505122351 | 59 | 219 | 7.0 | 14.0 | 0.00 | 0.00 | 0.00 | 81 | 1000.9 |
| 20260505121451 | 59 | 217 | 8.0 | 17.0 | 0.00 | 0.00 | 0.00 | 81 | 1001.0 |
| 20260505120551 | 58 | 222 | 11.0 | 19.0 | 0.00 | 0.00 | 0.00 | 80 | 1000.9 |
| 20260505115651 | 58 | 223 | 11.0 | 21.0 | 0.00 | 0.00 | 0.00 | 83 | 1000.9 |
| 20260505113851 | 56 | 215 | 9.0 | 18.0 | 0.00 | 0.00 | 0.00 | 87 | 1001.1 |
| 20260505112951 | 56 | 215 | 8.0 | 15.0 | 0.00 | 0.00 | 0.00 | 88 | 1001.0 |
| 20260505112051 | 55 | 214 | 7.0 | 16.0 | 0.00 | 0.00 | 0.00 | 89 | 1001.0 |
| 20260505111150 | 54 | 210 | 8.0 | 14.0 | 0.00 | 0.00 | 0.00 | 90 | 1000.8 |
| 20260505110251 | 54 | 212 | 7.0 | 15.0 | 0.00 | 0.00 | 0.00 | 91 | 1000.9 |